Location: Aalsum
(53.3404°N, 6.0062°E)
Time: 08:53:38
(UTC+00:00)

Cosmos 2322 Rocket - Pass Details

Date: 28 January 2023
Orbit: 832 x 851 km, 71.0° (Epoch: 20 March)

Event Time Altitude Azimuth Distance (km) Brightness Sun altitude
Rises 19:46:15 0° 211° (SSW) 3,367 5.5 -31.8°
Reaches altitude 10° 19:48:40 10° 211° (SSW) 2,437 4.8 -32.2°
Enters shadow 19:50:38 23° 212° (SSW) 1,711 3.9 -32.5°
